When you browse on this site, cookies collect data to enhance your experience and personalize the content and advertising you see.
Visit our Privacy Policy to learn more. By continuing to use the site, you agree to this use of cookies and data.

Meteo pe oră la Dzhuryns'ka Slobidka

Astăzi, 19 Septembrie, Sâmbătă

Timp Temperatura Precipitaţii Vânt Presiune Umiditate
00:00 +8°C° 0 mm 3 m/s 738 mmHg 79%
01:00 +7°C° 0 mm 3 m/s 738 mmHg 81%
02:00 +7°C° 0 mm 3 m/s 739 mmHg 81%
03:00 +7°C° 0 mm 2 m/s 738 mmHg 82%
04:00 +6°C° 0 mm 2 m/s 738 mmHg 83%
05:00 +6°C° 0 mm 2 m/s 738 mmHg 85%
06:00 +7°C° 0 mm 2 m/s 738 mmHg 80%
07:00 +9°C° 0 mm 2 m/s 738 mmHg 75%
08:00 +11°C° 0 mm 1 m/s 738 mmHg 68%
09:00 +13°C° 0 mm 1 m/s 738 mmHg 61%
10:00 +14°C° 0 mm 1 m/s 738 mmHg 54%
11:00 +16°C° 0 mm 1 m/s 738 mmHg 46%
12:00 +18°C° 0 mm 1 m/s 738 mmHg 44%
13:00 +19°C° 0 mm 1 m/s 737 mmHg 41%
14:00 +20°C° 0 mm 1 m/s 737 mmHg 38%
15:00 +20°C° 0 mm 1 m/s 737 mmHg 41%
16:00 +20°C° 0 mm 1 m/s 736 mmHg 43%
17:00 +20°C° 0 mm 1 m/s 736 mmHg 46%
18:00 +18°C° 0 mm 1 m/s 736 mmHg 50%
19:00 +15°C° 0 mm 1 m/s 736 mmHg 55%
20:00 +13°C° 0 mm 1 m/s 736 mmHg 59%
21:00 +13°C° 0 mm 1 m/s 736 mmHg 61%
22:00 +12°C° 0 mm 1 m/s 736 mmHg 63%
23:00 +12°C° 0 mm 1 m/s 736 mmHg 65%

Mâine, 20 Septembrie, Duminică

Timp Temperatura Precipitaţii Vânt Presiune Umiditate
00:00 +11°C° 0 mm 1 m/s 736 mmHg 68%
01:00 +11°C° 0 mm 1 m/s 736 mmHg 70%
02:00 +10°C° 0 mm 1 m/s 736 mmHg 72%
03:00 +10°C° 0 mm 1 m/s 736 mmHg 73%
04:00 +10°C° 0 mm 1 m/s 736 mmHg 75%
05:00 +9°C° 0 mm 1 m/s 736 mmHg 76%
06:00 +11°C° 0 mm 1 m/s 736 mmHg 73%
07:00 +12°C° 0 mm 1 m/s 736 mmHg 69%
08:00 +13°C° 0 mm 2 m/s 736 mmHg 66%
09:00 +15°C° 0 mm 2 m/s 736 mmHg 60%
10:00 +16°C° 0 mm 2 m/s 736 mmHg 54%
11:00 +18°C° 0 mm 3 m/s 736 mmHg 48%
12:00 +19°C° 0 mm 3 m/s 736 mmHg 46%
13:00 +20°C° 0 mm 3 m/s 736 mmHg 44%
14:00 +21°C° 0 mm 3 m/s 735 mmHg 42%
15:00 +20°C° 0 mm 3 m/s 735 mmHg 45%
16:00 +20°C° 0 mm 3 m/s 735 mmHg 47%
17:00 +19°C° 0 mm 3 m/s 735 mmHg 50%
18:00 +18°C° 0 mm 3 m/s 735 mmHg 49%
19:00 +16°C° 0 mm 3 m/s 735 mmHg 48%
20:00 +14°C° 0 mm 3 m/s 735 mmHg 47%
21:00 +13°C° 0 mm 3 m/s 735 mmHg 51%
22:00 +13°C° 0 mm 3 m/s 735 mmHg 55%
23:00 +12°C° 0 mm 3 m/s 735 mmHg 58%

Poimâine, 21 Septembrie, Luni

Timp Temperatura Precipitaţii Vânt Presiune Umiditate
00:00 +12°C° 0 mm 3 m/s 735 mmHg 58%
01:00 +12°C° 0 mm 4 m/s 735 mmHg 58%
02:00 +11°C° 0 mm 4 m/s 735 mmHg 58%
03:00 +11°C° 0 mm 4 m/s 735 mmHg 57%
04:00 +10°C° 0 mm 3 m/s 735 mmHg 57%
05:00 +10°C° 0 mm 3 m/s 735 mmHg 56%
06:00 +11°C° 0 mm 3 m/s 735 mmHg 55%
07:00 +12°C° 0 mm 3 m/s 735 mmHg 54%
08:00 +13°C° 0 mm 3 m/s 735 mmHg 52%
09:00 +15°C° 0 mm 4 m/s 735 mmHg 49%
10:00 +18°C° 0 mm 4 m/s 735 mmHg 45%
11:00 +20°C° 0 mm 4 m/s 735 mmHg 41%
12:00 +21°C° 0 mm 4 m/s 735 mmHg 40%
13:00 +23°C° 0 mm 4 m/s 735 mmHg 38%
14:00 +25°C° 0 mm 4 m/s 734 mmHg 36%
15:00 +23°C° 0 mm 4 m/s 734 mmHg 39%
16:00 +24°C° 0 mm 3 m/s 734 mmHg 42%
17:00 +22°C° 0 mm 3 m/s 734 mmHg 45%
18:00 +21°C° 0 mm 3 m/s 734 mmHg 47%
19:00 +19°C° 0 mm 3 m/s 734 mmHg 49%
20:00 +17°C° 0 mm 3 m/s 734 mmHg 50%
21:00 +17°C° 0 mm 3 m/s 734 mmHg 51%
22:00 +16°C° 0 mm 3 m/s 734 mmHg 52%
23:00 +14°C° 0 mm 3 m/s 734 mmHg 52%

22 Septembrie, Marţi

Timp Temperatura Precipitaţii Vânt Presiune Umiditate
00:00 +14°C° 0 mm 3 m/s 734 mmHg 53%
01:00 +13°C° 0 mm 3 m/s 733 mmHg 53%
02:00 +14°C° 0 mm 2 m/s 733 mmHg 53%
03:00 +13°C° 0 mm 2 m/s 733 mmHg 54%
04:00 +13°C° 0 mm 2 m/s 733 mmHg 55%
05:00 +12°C° 0 mm 2 m/s 733 mmHg 56%
06:00 +13°C° 0 mm 2 m/s 733 mmHg 55%
07:00 +13°C° 0 mm 3 m/s 733 mmHg 55%
08:00 +14°C° 0 mm 3 m/s 733 mmHg 54%
09:00 +17°C° 0 mm 4 m/s 734 mmHg 50%
10:00 +20°C° 0 mm 4 m/s 734 mmHg 46%
11:00 +22°C° 0 mm 5 m/s 734 mmHg 41%
12:00 +23°C° 0 mm 5 m/s 733 mmHg 39%
13:00 +25°C° 0 mm 5 m/s 733 mmHg 36%
14:00 +26°C° 0 mm 5 m/s 733 mmHg 33%
15:00 +25°C° 0 mm 5 m/s 732 mmHg 35%
16:00 +23°C° 0 mm 4 m/s 732 mmHg 37%
17:00 +22°C° 0 mm 4 m/s 731 mmHg 38%
18:00 +20°C° 0 mm 4 m/s 731 mmHg 39%
19:00 +19°C° 0 mm 4 m/s 731 mmHg 40%
20:00 +17°C° 0 mm 4 m/s 731 mmHg 41%
21:00 +15°C° 0 mm 4 m/s 731 mmHg 42%
22:00 +16°C° 0 mm 3 m/s 731 mmHg 42%
23:00 +14°C° 0 mm 3 m/s 731 mmHg 43%

23 Septembrie, Miercuri

Timp Temperatura Precipitaţii Vânt Presiune Umiditate
00:00 +13°C° 0 mm 3 m/s 731 mmHg 45%
01:00 +13°C° 0 mm 3 m/s 731 mmHg 48%
02:00 +12°C° 0 mm 3 m/s 730 mmHg 50%
03:00 +12°C° 0 mm 3 m/s 730 mmHg 54%
04:00 +11°C° 0 mm 3 m/s 730 mmHg 58%
05:00 +11°C° 0 mm 3 m/s 730 mmHg 62%
06:00 +12°C° 0 mm 3 m/s 730 mmHg 63%
07:00 +13°C° 0 mm 3 m/s 730 mmHg 64%
08:00 +13°C° 0 mm 3 m/s 730 mmHg 64%
09:00 +17°C° 0 mm 4 m/s 730 mmHg 59%
10:00 +19°C° 0 mm 4 m/s 730 mmHg 54%
11:00 +21°C° 0 mm 4 m/s 729 mmHg 48%
12:00 +22°C° 0 mm 4 m/s 729 mmHg 46%
13:00 +23°C° 0 mm 4 m/s 729 mmHg 43%
14:00 +25°C° 0 mm 4 m/s 729 mmHg 40%
15:00 +25°C° 0 mm 4 m/s 728 mmHg 41%
16:00 +23°C° 0 mm 4 m/s 728 mmHg 42%
17:00 +23°C° 0 mm 4 m/s 727 mmHg 44%
18:00 +21°C° 0 mm 4 m/s 727 mmHg 44%
19:00 +19°C° 0 mm 4 m/s 727 mmHg 45%
20:00 +17°C° 0 mm 3 m/s 728 mmHg 45%
21:00 +17°C° 0 mm 3 m/s 727 mmHg 46%
22:00 +16°C° 0 mm 3 m/s 727 mmHg 46%
23:00 +16°C° 0 mm 2 m/s 727 mmHg 46%

24 Septembrie, Joi

Timp Temperatura Precipitaţii Vânt Presiune Umiditate
00:00 +15°C° 0 mm 2 m/s 727 mmHg 48%
01:00 +15°C° 0 mm 2 m/s 727 mmHg 50%
02:00 +15°C° 0 mm 2 m/s 727 mmHg 52%
03:00 +14°C° 0 mm 2 m/s 727 mmHg 54%
04:00 +14°C° 0 mm 2 m/s 727 mmHg 56%
05:00 +13°C° 0 mm 2 m/s 727 mmHg 58%
06:00 +14°C° 0 mm 2 m/s 727 mmHg 58%
07:00 +15°C° 0 mm 2 m/s 727 mmHg 57%
08:00 +16°C° 0 mm 2 m/s 727 mmHg 57%
09:00 +18°C° 0 mm 2 m/s 727 mmHg 52%
10:00 +20°C° 0 mm 3 m/s 727 mmHg 47%
11:00 +24°C° 0 mm 3 m/s 727 mmHg 42%
12:00 +25°C° 0 mm 3 m/s 727 mmHg 40%
13:00 +26°C° 0 mm 2 m/s 727 mmHg 37%
14:00 +27°C° 0 mm 2 m/s 727 mmHg 35%
15:00 +26°C° 0 mm 2 m/s 727 mmHg 39%
16:00 +25°C° 0 mm 2 m/s 727 mmHg 43%
17:00 +24°C° 0 mm 2 m/s 727 mmHg 47%
18:00 +23°C° 0 mm 2 m/s 727 mmHg 50%
19:00 +21°C° 0 mm 2 m/s 727 mmHg 54%
20:00 +19°C° 0 mm 2 m/s 727 mmHg 57%
21:00 +19°C° 0 mm 2 m/s 727 mmHg 58%
22:00 +19°C° 0 mm 1 m/s 727 mmHg 59%
23:00 +19°C° 0 mm 1 m/s 727 mmHg 60%
Arată mai mult